sat.trackr.live / text

‹ back to catalog

JILIN-1 GAOFEN 3D31

NORAD 52448 · 2022-048F

PAYLOAD ACTIVE UNKNOWN

§ Identity

Operator
Country
PRC
Launch date
2022-05-05
Launch site
TAISC
Launch vehicle
Mass (kg)
RCS (m²)

External: N2YO · Heavens-Above · Gunter

§ Orbital elements

Epoch: 2026-08-05T13:41:33.810144Z

Period
88.48 min
Inclination
97.5721°
Eccentricity
0.0013224
Mean motion
16.27529869 rev/d
Perigee alt
190.5 km
Apogee alt
207.9 km
Semi-major
6,577.3 km
B*
7.7927e-4
RAAN
338.8972°
Arg perigee
266.4130°
Mean anomaly
93.5650°
Rev number
23,745

§ Raw data

JILIN-1 GAOFEN 3D311 52448U 22048F   26217.57053021  .02769964  25831-5  77927-3 0  99922 52448  97.5721 338.8972 0013224 266.4130  93.5650 16.27529869237454

JSON: /api/v1/satellites/52448 · /tle

For live sub-satellite position, see the globe view (requires WebGL).

§ Visibility from observer

Set your observer location to see the next 7 days of passes ≥ 10°. The values pass through the URL so the page stays shareable.

No JS? Fill the form by hand. The geolocation button needs JavaScript.